This demonstration page uses our WeatherBlox Daily Observations layout. Learn more.

Left ArrowRight Arrow

Hourly Observations for February 17, 2016

Temp ( °F °C ) Dew Point ( °F °C ) Humidity (%) Winds ( mph kmh ) Pressure ( in mb ) Visibility ( mi km ) Precip ( " mm )
12:15 am 00:15 Partly Cloudy 39 3.8 27 -2.6 63 63 S 14 22 30.03 1017 10 16 N/A
12:35 am 00:35 Mostly Cloudy 38 3.5 27 -2.7 64 64 S 14 22 30.03 1017 10 16 N/A
12:55 am 00:55 Partly Cloudy 37 3 27 -2.7 67 67 S 15 24 30.03 1017 10 16 N/A
1:15 am 01:15 Clear 36 2.3 27 -2.7 70 70 SSW 10 17 30.06 1018 10 16 N/A
1:35 am 01:35 Clear 37 2.5 27 -2.8 68 68 SSW 10 17 30.03 1017 10 16 N/A
1:55 am 01:55 Clear 36 2.2 27 -3 69 69 S 8 13 30.06 1018 10 16 N/A
2:15 am 02:15 Clear 36 2 27 -3 70 70 SSW 9 15 30.06 1018 10 16 N/A
2:35 am 02:35 Clear 35 1.4 27 -3 73 73 SW 7 11 30.06 1018 10 16 N/A
2:55 am 02:55 Clear 34 1.1 27 -3 74 74 SW 8 13 30.06 1018 10 16 N/A
3:15 am 03:15 Clear 33 0.7 27 -3 77 77 SW 5 7 30.06 1018 10 16 N/A
3:35 am 03:35 Clear 33 0.4 26 -3.1 78 78 SW 6 9 30.06 1018 10 16 N/A
3:55 am 03:55 Clear 32 0.1 26 -3.1 79 79 SW 7 11 30.06 1018 10 16 N/A
4:15 am 04:15 Clear 32 undefined 26 -3.1 80 80 SW 5 7 30.06 1018 10 16 N/A
4:35 am 04:35 Clear 32 undefined 27 -3 80 80 SW 5 7 30.09 1019 10 16 N/A
4:55 am 04:55 Clear 31 -0.3 26 -3.2 81 81 W 3 6 30.09 1019 10 16 N/A
5:15 am 05:15 Clear 32 undefined 27 -3 80 80 W 3 6 30.09 1019 10 16 N/A
5:35 am 05:35 Clear 30 -1.2 25 -3.7 83 83 W 3 6 30.12 1020 10 16 N/A
5:55 am 05:55 Clear 31 -0.5 27 -3 83 83 W 5 7 30.12 1020 10 16 N/A
6:15 am 06:15 Clear 31 -0.8 26 -3.1 85 85 W 7 11 30.12 1020 10 16 N/A
6:35 am 06:35 Clear 31 -0.7 26 -3.2 83 83 WNW 6 9 30.15 1021 10 16 N/A
6:55 am 06:55 Clear 32 -0.1 27 -2.8 82 82 WNW 5 7 30.12 1020 10 16 N/A
7:15 am 07:15 Clear 32 undefined 26 -3.1 80 80 NW 6 9 30.12 1020 10 16 N/A
7:35 am 07:35 Sunny 31 -0.6 26 -3.1 83 83 N N/A 30.15 1021 10 16 N/A
7:55 am 07:55 Sunny 31 -0.7 26 -3.1 84 84 NW 5 7 30.15 1021 10 16 N/A
8:15 am 08:15 Sunny 32 undefined 28 -2.5 83 83 WNW 5 7 30.12 1020 10 16 N/A
8:35 am 08:35 Sunny 33 0.3 28 -2.1 84 84 NW 6 9 30.18 1022 10 16 N/A
8:55 am 08:55 Sunny 35 1.4 29 -1.8 80 80 NNW 3 6 30.15 1021 10 16 N/A
9:15 am 09:15 Sunny 37 2.7 30 -1.1 76 76 NW 3 6 30.15 1021 10 16 N/A
9:35 am 09:35 Sunny 39 4 31 -0.7 72 72 NNW 3 6 30.12 1020 10 16 N/A
9:55 am 09:55 Sunny 41 5 32 undefined 70 70 N N/A 30.12 1020 10 16 N/A
10:15 am 10:15 Sunny 43 5.9 32 0.1 67 67 N 3 6 30.12 1020 10 16 N/A
10:35 am 10:35 Sunny 44 6.8 33 0.6 65 65 NNE 3 6 30.09 1019 10 16 N/A
10:55 am 10:55 Sunny 46 7.9 34 1 62 62 NE 5 7 30.09 1019 10 16 N/A
11:15 am 11:15 Sunny 48 9.1 35 1.8 61 61 ENE 5 7 30.09 1019 10 16 N/A
11:35 am 11:35 Sunny 49 9.7 35 1.7 58 58 E 3 6 30.06 1018 10 16 N/A
11:55 am 11:55 Sunny 52 11 35 1.8 53 53 ESE 6 9 30.06 1018 10 16 N/A
12:15 pm 12:15 Sunny 51 10.5 36 2.1 56 56 SE 6 9 30.06 1018 10 16 N/A
12:35 pm 12:35 Sunny 52 11 36 2 54 54 SE 6 9 30.06 1018 10 16 N/A
12:55 pm 12:55 Sunny 53 11.4 36 2.2 53 53 SE 5 7 30.06 1018 10 16 N/A
1:15 pm 13:15 Sunny 53 11.5 37 2.5 54 54 SE 6 9 30.03 1017 10 16 N/A
1:35 pm 13:35 Sunny 52 11.1 37 2.6 56 56 SE 7 11 30.03 1017 10 16 N/A
1:55 pm 13:55 Sunny 52 11.1 36 2.3 55 55 ESE 7 11 30.03 1017 10 16 N/A
2:15 pm 14:15 Sunny 53 11.5 37 2.8 55 55 ESE 6 9 30.03 1017 10 16 N/A
2:35 pm 14:35 Sunny 53 11.9 37 2.9 54 54 SE 7 11 30.03 1017 10 16 N/A
2:55 pm 14:55 Sunny 54 12 37 2.7 53 53 SE 6 9 30.00 1016 10 16 N/A
3:15 pm 15:15 Sunny 53 11.5 37 2.9 56 56 ESE 6 9 30.00 1016 10 16 N/A
3:35 pm 15:35 Sunny 51 10.8 38 3.3 60 60 ESE 6 9 30.00 1016 10 16 N/A
3:55 pm 15:55 Sunny 51 10.4 38 3.2 61 61 ESE 5 7 30.00 1016 10 16 N/A
4:15 pm 16:15 Sunny 50 10 38 3.5 64 64 ESE 7 11 30.00 1016 10 16 N/A
4:35 pm 16:35 Sunny 49 9.5 38 3.4 66 66 ESE 8 13 29.97 1015 10 16 N/A
4:55 pm 16:55 Sunny 48 9.1 38 3.6 69 69 ESE 8 13 29.97 1015 10 16 N/A
5:15 pm 17:15 Sunny 46 7.7 38 3.1 73 73 ESE 7 11 30.00 1016 10 16 N/A
5:35 pm 17:35 Sunny 45 7.1 38 3.1 76 76 ESE 6 9 30.00 1016 10 16 N/A
5:55 pm 17:55 Sunny 44 6.5 37 2.5 76 76 ESE 7 11 30.00 1016 10 16 N/A
6:15 pm 18:15 Clear 43 5.9 36 2 76 76 SE 8 13 30.00 1016 10 16 N/A
6:35 pm 18:35 Clear 43 5.9 35 1.5 74 74 SE 8 13 30.00 1016 10 16 N/A
6:55 pm 18:55 Clear 43 6.1 35 1.5 73 73 SE 7 11 30.00 1016 10 16 N/A
7:15 pm 19:15 Clear 40 4.2 34 0.9 79 79 ESE 8 13 30.03 1017 10 16 N/A
7:35 pm 19:35 Clear 39 3.7 33 0.6 80 80 ESE 8 13 30.03 1017 10 16 N/A
7:55 pm 19:55 Clear 40 4.2 34 0.9 79 79 ESE 7 11 30.03 1017 10 16 N/A
8:15 pm 20:15 Clear 38 3.2 33 0.5 83 83 ESE 8 13 30.03 1017 10 16 N/A
8:35 pm 20:35 Clear 38 3.2 33 0.7 84 84 ESE 8 13 30.03 1017 10 16 N/A
8:55 pm 20:55 Clear 38 3.4 33 0.7 83 83 SE 10 17 30.00 1016 10 16 N/A
9:15 pm 21:15 Clear 38 3.1 33 0.3 82 82 SE 9 15 30.00 1016 10 16 N/A
9:35 pm 21:35 Clear 39 4.1 33 0.5 78 78 SE 9 15 30.00 1016 10 16 N/A
9:55 pm 21:55 Clear 41 5 33 0.3 72 72 SE 9 15 30.00 1016 10 16 N/A
10:15 pm 22:15 Clear 41 4.9 32 0.1 71 71 SE 12 19 29.97 1015 10 16 N/A
10:35 pm 22:35 Clear 40 4.7 32 undefined 72 72 SSE 10 17 29.97 1015 10 16 N/A
10:55 pm 22:55 Clear 41 5 32 undefined 70 70 SSE 8 13 29.97 1015 10 16 N/A
11:15 pm 23:15 Clear 40 4.3 32 undefined 74 74 SSE 9 15 29.97 1015 10 16 N/A
11:35 pm 23:35 Clear 39 3.7 32 undefined 77 77 SE 10 17 29.94 1014 10 16 N/A
11:55 pm 23:55 Clear 38 3.3 32 -0.1 79 79 SSE 9 15 29.94 1014 10 16 N/A

Powered by AerisWeather